URMTURMM

Guest
Details From URMT - SHPAKOVSKOYE
To URMM - MINERALNYYE VODY
Flight Number -
Tags generated
Created
Modified
Stats Distance 67 nm / 125 km
Max Altitude 8,600 ft / 2,621 m
Waypoints 5
Social Downloads 1
Likes 0
Share VATSIM

Download

Looking for another format? Having issues loading an existing format? Contact us
Advertisement - Login to hide

Notes

Basic altitude profile: - Ascent Rate: 2500ft/min - Ascent Speed: 250kts - Cruise Altitude: 35000ft - Cruise Speed: 420kts - Descent Rate: 1500ft/min - Descent Speed: 250kts Options: - Use NATs: yes - Use PACOTS: yes - Use low airways: yes - Use high airways: no

Route

URMT PELIR R806 MINPU URMM

ID Type Via Altitude Latitude Longitude Leg Dist Tot Dist Heading (true) Name
O URMT APT - 0 ft / 0 m 45.10926˚ 42.11283˚ - 0 nm - SHPAKOVSKOYE
PELIR FIX - 8,600 ft / 2,621 m 44.74972˚ 42.49861˚ 27 nm 27 nm 143° / 143° -
SULOD FIX R806 (AWY-LO) 7,900 ft / 2,408 m 44.59139˚ 42.66528˚ 11 nm 38 nm 143° / 143° -
MINPU FIX R806 (AWY-LO) 7,900 ft / 2,408 m 44.22500˚ 43.08333˚ 28 nm 67 nm 141° / 141° -
O URMM APT - 0 ft / 0 m 44.22507˚ 43.08189˚ 0 nm 67 nm 274° / 274° MINERALNYYE VODY

Altitude Profile

Advertisement - Login to hide

URMT

Details ICAO URMT (STW)
Name SHPAKOVSKOYE
Region Russia
Timezone Europe/Moscow (UTC+3.0)
Stats Elevation 1,486 ft / 453 m (AMSL)
Location 45.109257° 42.112826°
Runways 1
Magnetic Variation 7.654° E

METAR

URMT 202300Z 11002MPS 9999 FEW033 15/11 Q1014 R07/150060 NOSIG RMK QFE720

Decode

TAF

Not found

Departure Runways

ID Width Length Bearing (true) Bearing (mag) Surface Threshold Offset Overrun Length
07 157 ft / 48 m 8,626 ft / 2,629 m 76.07° 68.42° Asphalt 0 ft / 0 m 140 ft / 43 m
25 157 ft / 48 m 8,626 ft / 2,629 m 256.09° 248.44° Asphalt 0 ft / 0 m 200 ft / 61 m

URMM

Details ICAO URMM (MRV)
Name MINERALNYYE VODY
Region Russia
Timezone Europe/Moscow (UTC+3.0)
Stats Elevation 1,054 ft / 321 m (AMSL)
Location 44.225073° 43.081891°
Runways 1
Magnetic Variation 7.424° E

METAR

URMM 202300Z 31004MPS 9999 NSC 15/13 Q1013 R30/090070 NOSIG RMK QFE732/0976

Decode

TAF

TAF URMM 201958Z 2021/2121 28003G08MPS 9999 SCT030 TX26/2112Z TN14/2102Z TEMPO 2021/2106 3100 -SHRA BKN011 BKN030CB TEMPO 2106/2121 26005G12MPS 3100 -SHRA BKN011 BKN030CB

Decode

Destination Runways

ID Width Length Bearing (true) Bearing (mag) Surface Threshold Offset Overrun Length
12 197 ft / 60 m 12,766 ft / 3,891 m 122.28° 114.86° Concrete 0 ft / 0 m 240 ft / 73 m
30 197 ft / 60 m 12,766 ft / 3,891 m 302.31° 294.89° Concrete 0 ft / 0 m 250 ft / 76 m

Popular Alternatives